Location: Zilina
(0.0000°N, 18.7333°E)
Time: 05:51:14
(UTC+02:00)

Daily predictions for brighter satellites

Satellite Brightness Start Highest point End
(mag) Time Altitude Azimuth Time Altitude Azimuth Time Altitude Azimuth
Ariane H10+ 4.3 03:45:33 76° NW 03:46:18 78° N 03:55:01 10° ENE
Cosmos 1844 Rocket 4.2 04:29:33 26° N 04:29:33 26° N 04:31:55 10° NNE
Intelsat 5-1 Rocket 4.3 04:30:02 53° NW 04:31:52 59° NNW 04:55:36 10° ENE
Centaur Rocket 4.4 04:39:54 43° ESE 04:39:54 43° ESE 04:46:12 10° ENE
Cosmos 883 Rocket 4.4 04:50:40 56° S 04:52:04 84° E 04:58:14 10° N
Ariane H10+ 3.2 04:55:08 78° W 04:55:36 87° S 05:03:18 10° E
Meteor 1-31 Rocket 4.1 04:52:36 10° NNE 04:55:17 38° NE 04:55:17 38° NE
Cosmos 1607 3.8 04:51:16 10° NNW 04:57:41 79° WSW 05:04:03 10° SSE
Cosmos 1484 Rocket 4.0 04:56:52 10° NNE 04:59:12 36° NNE 04:59:12 36° NNE
Ariane H10 4.1 05:03:14 34° SE 05:03:14 34° SE 05:05:24 10° ESE
Lacrosse 5 rocket 3.0 05:02:00 27° SSE 05:03:05 31° ESE 05:07:01 10° ENE
ARIANE 5 DEB (SYLDA) 4.1 05:01:29 48° WNW 05:03:52 77° N 05:08:43 10° E
Meteor 2-15 Rocket 4.3 05:06:05 57° SW 05:06:59 64° W 05:12:58 10° N
DELTA 2 R/B (1) 3.5 05:06:41 61° SSW 05:07:39 79° SE 05:13:15 10° NE
ARIANE 5 R/B 4.3 05:09:19 15° E 05:09:19 15° E 05:09:45 10° E
CZ-4B R/B 3.8 05:05:42 10° SE 05:08:33 25° E 05:11:21 10° NNE
ARIANE 5 DEB (SYLDA) 2.9 05:09:04 75° ENE 05:09:04 75° ENE 05:14:04 10° E
SEDSat Delta rocket 4.5 05:09:17 36° SSW 05:11:42 53° SSE 05:18:18 10° ENE
Cosmos 1943 4.3 05:07:01 10° N 05:12:19 43° ENE 05:17:39 10° SE
ASC 2 Rocket 3.8 05:16:11 32° NNW 05:17:36 47° NNE 05:22:08 10° E
Cosmos 1745 Rocket 4.0 05:11:28 10° N 05:17:38 82° E 05:23:47 10° S
Ariane H10-3 3.7 05:20:58 36° W 05:23:52 85° S 06:10:40 10° E
ARIANE 5 R/B 3.1 05:16:48 25° W 05:24:58 87° N 05:28:33 10° E
SJ-12 3.9 05:25:32 10° NNE 05:29:34 80° ESE 05:32:53 15° S
Cosmos 1812 Rocket 3.8 05:29:55 10° S 05:34:15 70° E 05:38:32 10° N
Meteor 2-10 Rocket 3.6 05:29:54 10° S 05:34:53 73° E 05:39:54 10° N
Meteor 1-11 4.1 05:30:20 10° N 05:35:59 76° W 05:41:35 10° S
SAR-Lupe-4 3.4 05:36:58 10° S 05:40:33 86° W 05:44:05 10° NNW
Cosmos 1689 Rocket 4.4 05:39:29 10° SE 05:42:00 26° E 05:44:30 10° NNE
Cosmos 2315 Rocket 4.4 05:39:00 18° SW 05:43:06 38° W 05:48:51 10° NNW
GPS 2-14 Rocket1 3.3 05:42:49 27° SSW 05:44:22 42° SSE 05:47:59 10° E
FENGYUN 3A 4.2 05:40:57 10° NNW 05:45:50 37° WNW 05:49:27 17° SW
SPELTRA 3.6 05:46:28 22° SW 05:48:19 31° S 05:51:28 10° ESE
GPS 2-12 Rocket1 4.5 05:46:23 18° WNW 05:49:01 29° NNW 05:53:10 10° NE
Cosmos 2278 Rocket 2.1 05:44:52 10° SSW 05:50:33 83° WNW 05:56:12 10° NNE
Cosmos 724 4.3 05:45:52 10° NNW 05:52:01 83° WSW 05:58:14 10° SSE
ADEOS Rocket 3.6 05:46:29 10° SSE 05:53:18 78° ENE 06:00:47 10° N
SWIFT 2.8 05:52:30 21° W 05:54:55 47° NNW 05:58:57 10° NE
SAR-Lupe-1 4.2 05:52:22 10° S 05:55:51 50° WSW 05:59:19 10° NNW
GPS 2-04 Rocket1 4.0 05:54:00 12° SSW 05:56:53 30° SE 06:00:14 10° ENE
ALOS 3.4 05:53:52 10° NNW 05:57:31 23° WNW 05:59:41 17° WSW
Cosmos 1455 2.2 05:53:59 10° SSW 05:57:44 56° W 06:01:29 10° N
Cosmos 1709 Rocket 3.9 05:52:13 10° N 05:58:19 82° W 06:04:26 10° S
NOSS 3-4 (A) 3.3 05:52:28 10° SSW 05:58:37 87° WNW 06:04:29 10° NNE
NOSS 3-4 (C) 3.3 05:52:36 10° SSW 05:58:45 88° WNW 06:04:36 10° NNE
CZ-4B R/B 4.0 05:58:35 10° NNW 06:02:19 28° WNW 06:05:47 11° SW
ERBS 2.8 06:00:45 10° NW 06:03:47 35° WSW 06:06:50 10° S
Sylda 5 2.3 06:00:30 14° W 06:04:27 61° N 06:07:57 10° ENE
H-2A R/B 2.3 06:00:50 10° N 06:04:34 57° WNW 06:08:24 10° SSW
ASTEX 1 3.5 06:02:34 10° N 06:07:19 54° W 06:12:08 10° SSW
HETE-2 4.5 06:06:07 14° W 06:09:32 85° S 06:13:39 10° E
Nadezhda 1 Rocket 4.2 06:04:00 10° S 06:10:22 80° E 06:16:45 10° N
CZ-3 R/B 4.3 06:03:29 12° WSW 06:15:25 19° SW 06:22:23 10° S
ASTRO E2 2.6 06:14:25 10° WSW 06:18:21 89° NW 06:22:18 10° ENE
Cosmos 494 Rocket 4.0 06:13:16 10° NNW 06:18:27 83° WSW 06:23:42 10° S
ATLAS 2AS CENTAUR R/B 3.0 06:14:36 10° SSW 06:21:56 65° WNW 06:29:44 10° NNE
SMAP 4.3 06:18:13 10° NNE 06:22:38 45° ESE 06:27:03 10° S
Cosmos 2058 3.4 06:18:57 10° N 06:23:06 68° E 06:27:17 10° S
Cosmos 1400 Rocket 4.1 06:27:27 10° SW 06:30:31 21° W 06:33:33 10° NW
CZ-3B R/B 2.0 06:28:03 10° WNW 06:36:41 82° SSW 06:39:40 10° ESE
